Home   Weather   Vancouver   Past weeks

Flag for USA Past Weather in Vancouver, Washington, USA — Yesterday and Last 2 Weeks

Now
64 °F

Sunny.


Feels Like: 64 °F
Forecast: 47 / 69 °F
Wind: 6 mph from North

Location: Vancouver - Pearson Airpark

Current Time: Sep 29, 2016 at 1:27:57 PM

Latest Report: Sep 29, 2016 at 12:53 PM


Visibility: 10 mi

Pressure: 30.06 "Hg

Humidity: 56%

Dew Point: 48 °F

Location of VancouverLocation

Past Weather in Vancouver — Graph

°F

Vancouver Temperature Yesterday

Maximum temperature yesterday: 74 °F (at 3:53 PM)
Minimum temperature yesterday: 47 °F (at 6:53 AM)
Average temperature yesterday: 62 °F

High & Low Weather Summary for the Past Weeks

 TemperatureHumidityPressure
High87 °F (Sep 26, 4:53 PM)97% (Sep 17, 9:53 PM)30.40 "Hg (Sep 17, 9:53 PM)
Low46 °F (Sep 20, 6:53 AM)25% (Sep 15, 5:53 PM)29.90 "Hg (Sep 21, 5:53 PM)
Average62 °F70%30.10 "Hg
* Reported Sep 14 11:53 AM — Sep 29 11:53 AM, Vancouver, Weather by CustomWeather, © 2016

Note: Actual official high and low records may vary slightly from our data, if they occured in-between our weather recording intervals... More about our weather records

Advertising

Vancouver Weather History for the Previous 24 Hours

Scroll right to see more
 ConditionsComfort  
Time TempWeatherWind HumidityBarometerVisibility
11:53 AM
Thu, Sep 29
61 °FSunny.7 mph62%30.07 "Hg10 mi
10:53 AM60 °FSunny.7 mph62%30.07 "Hg10 mi
9:53 AM57 °FPassing clouds.6 mph69%30.07 "Hg10 mi
8:53 AM55 °FSunny.6 mph74%30.06 "Hg10 mi
7:53 AM50 °FSunny.No wind86%30.05 "Hg10 mi
6:53 AM48 °FClear.No wind86%30.03 "Hg10 mi
5:53 AM50 °FClear.No wind83%30.02 "Hg10 mi
4:53 AM51 °FClear.No wind83%30.01 "Hg10 mi
3:53 AM53 °FClear.No wind80%30.01 "Hg10 mi
2:53 AM56 °FClear.3 mph72%30.00 "Hg10 mi
1:53 AM58 °FClear.5 mph67%29.99 "Hg10 mi
12:53 AM53 °FClear.No wind74%29.99 "Hg10 mi
11:53 PM
Wed, Sep 28
59 °FClear.No wind62%29.99 "Hg10 mi
10:53 PM60 °FClear.3 mph60%29.99 "Hg10 mi
9:53 PM63 °FClear.6 mph52%29.98 "Hg10 mi
8:53 PM65 °FClear.8 mph49%29.98 "Hg10 mi
7:53 PM66 °FClear.8 mph50%29.97 "Hg10 mi
6:53 PM70 °FSunny.7 mph46%29.97 "Hg10 mi
5:53 PM72 °FSunny.12 mph43%29.97 "Hg10 mi
4:53 PM74 °FSunny.7 mph41%29.98 "Hg10 mi
3:53 PM74 °FSunny.8 mph41%29.98 "Hg10 mi
2:53 PM72 °FSunny.7 mph44%29.99 "Hg10 mi
1:53 PM70 °FSunny.7 mph49%30.01 "Hg10 mi
Weather by CustomWeather, © 2016

See weather overviewHow to use our weather pages